EFETENAN

Guest
Details From EFET - Enontekio
To ENAN - ANDOYA
Flight Number -
Tags generated
Created
Modified
Stats Distance 168 nm / 310 km
Max Altitude 20,300 ft / 6,187 m
Waypoints 3
Social Downloads 3
Likes 0
Share VATSIM

Download

Looking for another format? Having issues loading an existing format? Contact us
Advertisement - Login to hide

Notes

Basic altitude profile: - Ascent Rate: 2500ft/min - Ascent Speed: 250kts - Cruise Altitude: 35000ft - Cruise Speed: 420kts - Descent Rate: 1500ft/min - Descent Speed: 250kts Options: - Use NATs: yes - Use PACOTS: yes - Use low airways: yes - Use high airways: yes

Route

EFET RIXEM ENAN

ID Type Via Altitude Latitude Longitude Leg Dist Tot Dist Heading (true) Name
O EFET APT - 0 ft / 0 m 68.36259˚ 23.42433˚ - 0 nm - Enontekio
RIXEM FIX - 20,300 ft / 6,187 m 68.79139˚ 20.32444˚ 72 nm 72 nm 292° / 289° -
O ENAN APT - 0 ft / 0 m 69.29335˚ 16.13775˚ 94 nm 167 nm 290° / 287° ANDOYA

Altitude Profile

Advertisement - Login to hide

Weather


0- 5 10 15 20 25 30 35+ Temperature / ° C

Clouds and Precipitation
Forecast for 2018-05-27 12:00 UTC. Updated 5 hours ago

Ground ~20,000 ft ~40,000 ft Winds

EFET

Details ICAO EFET (ENF)
Name Enontekio
Region Finland
Timezone Europe/Helsinki (UTC+3.0)
Stats Elevation 1,005 ft / 306 m (AMSL)
Location 68.362586° 23.424328°
Runways 1
Magnetic Variation 11.001° E

METAR

EFET 271520Z AUTO 24008KT CAVOK 09/M00 Q1027

Decode

TAF

Not found

Departure Runways

ID Width Length Bearing (true) Bearing (mag) Surface Threshold Offset Overrun Length
03 148 ft / 45 m 6,544 ft / 1,995 m 34.65° 23.65° Asphalt 0 ft / 0 m 0 ft / 0 m
21 148 ft / 45 m 6,544 ft / 1,995 m 214.68° 203.68° Asphalt 0 ft / 0 m 0 ft / 0 m

ENAN

Details ICAO ENAN (ANX)
Name ANDOYA
Region Norway
Timezone Europe/Oslo (UTC+2.0)
Stats Elevation 43 ft / 13 m (AMSL)
Location 69.293353° 16.137750°
Runways 2
Magnetic Variation 7.194° E

METAR

ENAN 271520Z 23019G33KT 9999 FEW035 BKN049 10/04 Q1028

Decode

TAF

TAF ENAN 271100Z 2712/2812 23018KT 9999 -RA FEW010 BKN025 TEMPO 2713/2720 24025G35KT PROB40 TEMPO 2800/2807 2000 BR BKN004 BECMG 2804/2807 25008KT

Decode

Destination Runways

ID Width Length Bearing (true) Bearing (mag) Surface Threshold Offset Overrun Length
03 148 ft / 45 m 5,468 ft / 1,667 m 31.41° 24.22° Asphalt 0 ft / 0 m 0 ft / 0 m
14 148 ft / 45 m 9,830 ft / 2,996 m 149.75° 142.56° Asphalt 823 ft / 251 m 0 ft / 0 m
21 148 ft / 45 m 5,468 ft / 1,667 m 211.43° 204.24° Asphalt 0 ft / 0 m 0 ft / 0 m
32 148 ft / 45 m 9,830 ft / 2,996 m 329.78° 322.59° Asphalt 886 ft / 270 m 0 ft / 0 m

Approach Navaids

Runway Type Ident Frequency Range Bearing (true) Bearing (mag) Slope Elevation
14 Localiser AN 109.10 MHz 18 nm / 33 km 149.79° 142.60° - 29 ft / 9 m (AMSL)